GW1539 Weather Reports


time (UTC)temp
C
wind
direction
speed
KPH
gust
KPH
rain 1hr
cm
rain 24hr
cm
rain mn
cm
humidity
%
barometer
mb
20260905203031 17 228 0.0 0.0 0.00 0.00 0.00 88 1019.3
20260905201529 18 228 0.0 1.6 0.00 0.00 0.00 87 1019.1
20260905194533 18 228 0.0 0.0 0.00 0.00 0.00 88 1019.0
20260905191534 18 228 0.0 0.0 0.00 0.00 0.00 87 1018.5
20260905184555 19 228 0.0 0.0 0.00 0.00 0.00 86 1018.1
20260905183037 20 228 0.0 0.0 0.00 0.00 0.00 84 1017.9
20260905180042 20 228 0.0 0.0 0.00 0.00 0.00 81 1017.5
20260905173033 21 228 0.0 0.0 0.00 0.00 0.00 79 1017.1
20260905171529 22 228 0.0 1.6 0.00 0.00 0.00 77 1016.9
20260905164536 23 228 0.0 4.8 0.00 0.00 0.00 73 1016.5
20260905163032 23 228 1.6 6.4 0.00 0.00 0.00 70 1016.3
20260905160109 25 230 1.6 9.7 0.00 0.00 0.00 65 1016.1
20260905153041 26 232 1.6 8.0 0.00 0.00 0.00 63 1015.9
20260905150043 25 355 1.6 6.4 0.00 0.00 0.00 66 1015.8
20260905144531 25 13 0.0 6.4 0.00 0.00 0.00 67 1015.8
20260905143035 25 13 3.2 8.0 0.00 0.00 0.00 65 1015.8
20260905140032 25 249 1.6 6.4 0.00 0.00 0.00 65 1016.0
20260905133047 26 267 6.4 12.9 0.00 0.00 0.00 61 1016.0
20260905130036 26 259 3.2 16.1 0.00 0.00 0.00 61 1016.1
20260905124533 26 216 6.4 16.1 0.00 0.00 0.00 62 1016.1
20260905121543 25 228 6.4 12.9 0.00 0.00 0.00 63 1016.3
20260905114542 25 245 6.4 17.7 0.00 0.00 0.00 64 1016.4
20260905111531 25 230 1.6 8.0 0.00 0.00 0.00 66 1016.4
20260905104543 24 269 0.0 4.8 0.00 0.00 0.00 69 1016.4
20260905103039 23 252 1.6 6.4 0.00 0.00 0.00 68 1016.4
20260905100047 23 321 0.0 4.8 0.00 0.00 0.00 69 1016.5
20260905093039 22 28 0.0 6.4 0.00 0.00 0.00 71 1016.7
20260905091537 22 28 0.0 1.6 0.00 0.00 0.00 69 1016.5
20260905090032 22 28 0.0 1.6 0.00 0.00 0.00 72 1016.5
20260905083037 22 28 0.0 1.6 0.00 0.00 0.00 72 1016.2
20260905080036 21 28 0.0 3.2 0.00 0.00 0.00 70 1015.9
20260905073053 20 28 0.0 1.6 0.00 0.00 0.00 76 1015.8
20260905070047 20 28 0.0 1.6 0.00 0.00 0.00 77 1016.1
20260905064532 20 28 0.0 8.0 0.00 0.00 0.00 77 1015.8
20260905063029 16 30 3.2 8.0 0.00 0.00 0.00 90 1016.1
20260905060038 15 275 0.0 0.0 0.00 0.00 0.00 94 1016.1
20260905054536 14 275 0.0 0.0 0.00 0.00 0.00 94 1016.0
20260905051541 13 275 0.0 0.0 0.00 0.00 0.00 95 1016.1
20260905044541 13 271 0.0 0.0 0.00 0.00 0.00 95 1015.8
20260905041538 13 271 0.0 0.0 0.00 0.00 0.00 95 1015.6
20260905034548 13 271 0.0 0.0 0.00 0.00 0.00 95 1016.2
20260905033027 13 271 0.0 0.0 0.00 0.00 0.00 94 1016.1
20260905030038 13 271 0.0 0.0 0.00 0.00 0.00 95 1016.3
20260905023039 13 271 0.0 0.0 0.00 0.00 0.00 95 1016.3
20260905020047 13 271 0.0 0.0 0.00 0.00 0.00 94 1016.3
20260905014550 14 271 0.0 0.0 0.00 0.00 0.00 94 1016.1
20260905013041 14 271 0.0 0.0 0.00 0.00 0.00 94 1016.2
20260905010041 14 271 0.0 0.0 0.00 0.00 0.00 94 1016.3
20260905004533 15 271 0.0 0.0 0.00 0.00 0.00 94 1016.4
20260905003031 15 271 0.0 0.0 0.00 0.00 0.00 94 1016.5
20260905000030 15 271 0.0 0.0 0.00 0.00 0.00 94 1017.1
20260904233028 15 271 0.0 0.0 0.00 0.00 0.00 94 1017.0
20260904230041 15 271 0.0 0.0 0.00 0.00 0.00 93 1017.3
20260904223032 15 271 0.0 0.0 0.00 0.00 0.00 93 1017.4
20260904220056 16 271 0.0 0.0 0.00 0.00 0.00 92 1017.4
20260904214531 16 271 0.0 0.0 0.00 0.00 0.00 92 1017.3
20260904211534 16 271 0.0 0.0 0.00 0.00 0.00 90 1017.5